User: anonymous   Login
Location: Gombori
(14.9797°N, 2.9419°W)
Time: 19:10:56
(UTC+00:00)
Language:

Meteor 2-13 Rocket - Orbit

View from above orbital plane
View from above orbital plane
View from above satellite
View from above satellite

Ground track
Ground track

The orbit data is extracted from the following two-line orbital elements,

1 16409U 85119B   21295.42781764  .00000041  00000-0  23055-4 0  9996
2 16409  82.5390 175.0518 0013704 244.5188 115.4555 13.84820076810355
Epoch (UTC): 22 October 2021 10:16:03
Eccentricity: 0.0013704
inclination: 82.5390°
perigee height: 937 km
apogee height: 957 km
right ascension of ascending node: 175.0518°
argument of perigee: 244.5188°
revolutions per day: 13.84820076
mean anomaly at epoch: 115.4555°
orbit number at epoch: 81035

The dashed part of the orbit path shows where the satellite is in the earth's shadow,  

DLR